Regional Weather Roundup
Issued by NWS

Home | Current Version | Previous Version | Text Only | Print | Product List | Glossary Off
Versions: 1 2 3 4 5 6 7 8 9 10 11 12 13 14 15 16 17 18 19 20 21 22 23 24 25 26 27 28 29 30 31 32 33 34 35 36 37 38 39 40 41 42 43 44 45 46 47 48 49 50

000
ASUS43 KLMK 242202
RWRKY
KENTUCKY REGIONAL WEATHER ROUNDUP
NATIONAL WEATHER SERVICE LOUISVILLE KY
600 PM EDT MON JUL 24 2017

NOTE "FAIR" INDICATES FEW OR NO CLOUDS BELOW 12,000 FEET
WITH NO SIGNIFICANT WEATHER AND/OR OBSTRUCTIONS TO VISIBILITY.

KYZ001>023-026-027-061>063-070>075-242300-
WESTERN AND SOUTH CENTRAL KENTUCKY

CITY           SKY/WX    TMP DP  RH WIND       PRES   REMARKS
PADUCAH        MOSUNNY   90  73  57 VRB5      29.91S HX  98
HENDERSON      SUNNY     89  70  53 N6        29.93S HX  94
OWENSBORO      MOSUNNY   90  71  53 NE7       29.92S HX  96
HOPKINSVILLE   PTSUNNY   89  74  62 SW6       29.93F HX  97
BOWLING GREEN  CLOUDY    91  71  51 NW6       29.93F HX  97
GLASGOW        NOT AVBL
$$

KYZ024-025-028>034-038-045-046-053-242300-
NORTH CENTRAL KENTUCKY

CITY           SKY/WX    TMP DP  RH WIND       PRES   REMARKS
LOUISVILLE/SDF PTSUNNY   91  66  43 N13G18    29.92S HX  93
LOUISVILLE/LOU PTSUNNY   89  70  53 N8G17     29.93S HX  94
FORT KNOX      MOSUNNY   86  73  63 W5        29.92F HX  93
$$

KYZ035>037-039>044-047>052-055>060-089>105-242300-
NORTHEAST KENTUCKY

CITY           SKY/WX    TMP DP  RH WIND       PRES   REMARKS
LEXINGTON      CLOUDY    80  70  71 S6        29.96S
COVINGTON      PTSUNNY   83  67  58 N12       29.96S
FRANKFORT      CLOUDY    85  64  49 NW7       29.94R
$$

KYZ054-064>069-076>088-106>120-242300-
SOUTHEAST KENTUCKY

CITY           SKY/WX    TMP DP  RH WIND       PRES   REMARKS
JACKSON        CLOUDY    73  70  90 E3        29.98S FOG
LONDON         PTSUNNY   89  66  46 W13       29.97R HX  91
SOMERSET       CLOUDY    86  68  54 W7        29.97R
MIDDLESBORO    MOSUNNY   87  71  58 S7        29.97S HX  93
MONTICELLO     MOCLDY    87  73  62 W13       29.99R HX  94
$$




USA.gov is the U.S. government's official web portal to all federal, state and local government web resources and services.